loading
DOY 198 | 2024-07-16T11:50:49Z
Showing default

STERNULA-1, 55044

Orbit data source: Space-Track

STERNULA-1, 55044 is a payload satellite owned by Sternula (DK) in LEO that was launched on Tue, 03 Jan 2023 UTC via a Falcon 9 launch vehicle from the Air Force Eastern Test Range (AFETR). Payloads include a variety of satellites, spacecraft, and rockets equipped with specific instruments for various scientific and technological missions. These include communications satellites like Starlink; space stations such as the ISS; scientific satellites like the Hubble; Earth observation satellites from companies like Planet Labs, Umbra, and HawkEye 360; GPS; miniature CubeSats for education and research; and military/defense satellites.

Loading next visibility...
Loading greatness...
STERNULA-1 details
NORAD ID55044
COSPAR ID
2023-001AM
Orbit
LEO
Last TLE update7 hours ago
Origin
Flag of DKSternula (DK / DEN)
ManufacturerSpace Inventor
BusCubesat 6U
MotorUnknown
Mass10 kg wet, 10 kg dry
Launch date (UTC)
2023-01-03 (2 years ago)
Launch vehicle
Falcon 9
Launch site
Air Force Eastern Test Range (AFETR)
Object type
Payload
Rocket body
Debris
Radar Cross SectionMedium (>0.1 m² and <1 m²)
Predictive object data (real-time)
Latitude-17.50933°
Longitude72.90346°
Altitude468.735 km
Speed7.629 km/s
Apparent Right ascension08h 06m 26s
Apparent Declination-42° 05' 29"
Sunlit
Object is in daylight
Predictive observer data (real-time)
Local Sidereal Time00:29:35
Azimuth115.225° SE
Elevation-41.571°
Doppler factor1
Orbital elements
Apogee462.152 km
Perigee449.707 km
Semi-major axis6,834.067 km
Eccentricity0.0009105
Inclination97.4253°
RAAN260.4976°
Arg. of periapsis81.1459°
True anomaly278.97845°
Mean anomaly279.0815°
Mean motion3.84171 °/min
BSTAR0.0014493
Period93.71 mins
Definitive object data (Epoch: 2024-07-16T04:44:07.163Z)
Latitude-0.00002°
Longitude-105.05188°
Altitude461.118 km
Speed7.637 km/s
True Right ascension17h 21m 59s
True Declination0° 00' 00"
Sunlit
Object was in full shadow at TLE epoch
TLE from 7 hours ago
0 STERNULA-1
1 55044U 23001AM  24198.19730513  .00050494  00000-0  14493-2 0  9992
2 55044  97.4253 260.4976 0009105  81.1459 279.0815 15.35652253 85223
Epoch: 2024-07-16T04:44Z
No data available

STERNULA-1 Visibility forecast

Observer location: 39.9160978°, -105.1181434

STERNULA-1 is not visible in the next 10 days
Span
Click to sort rows by Start time (UTC) header in descending order
Start Az.
Max El. time (UTC)
Max El. Az.
Max El.
End time (UTC)
End Az.